Location: Biltmore Gardens
(41.6070°N, 83.4666°W)
Time: 13:43:16
(UTC+00:00)

Cosmos 1346 Rocket - Pass Details

Date: 14 July 2020
Orbit: 533 x 546 km, 81.2° (Epoch: 04 August)

Event Time Altitude Azimuth Distance (km) Brightness Sun altitude
Exits shadow 03:48:47 25° 68° (ENE) 1,110 4.3 -21.8°
Drops below altitude 10° 03:51:15 10° 33° (NNE) 1,794 5.8 -22.0°
Sets 03:53:37 0° 22° (NNE) 2,691 6.9 -22.2°
